• Join FlightAware (Why Join?)
  • Login
  • US Flag GB Flag 
03:18 EDT


 

Airport Tracker/Info


-or-


 

Live Flight TrackerFlight Track Log ✈ SSX920 ✈ 04-Mar-2011 ✈ KDRO - KDEN

Flight Track Log - Related Links

Times and Time Zones

All times are in EST time to prevent confusion due to time zone crossing. See the SSX920 flight status page for this flight to view local times or setup timezone preferences in your user account.

Time Position Orientation Groundspeed Altitude Reporting Facility
EST Latitude Longitude Course Direction KTS MPH feet Rate Location/Type
08:32 37.2132 -107.7040 241° Southwest -1  Level FlightAware Approximate
08:32 37.1633 -107.8160 41° Northeast 177 204 10,300 8,460 Climbing Denver Center
08:33 37.2011 -107.7750 38° Northeast 131 151 12,800 2,340 Climbing Denver Center
08:34 37.2456 -107.7320 38° Northeast 187 215 15,000 2,040 Climbing Denver Center
08:35 37.2981 -107.6810 39° Northeast 212 244 16,900 1,620 Climbing Denver Center
08:36 37.3508 -107.6270 41° Northeast 235 270 18,300 1,440 Climbing Denver Center
08:37 37.4056 -107.5670 38° Northeast 263 303 19,800 1,500 Climbing Denver Center
08:38 37.4667 -107.5060 40° Northeast 269 310 21,400 1,500 Climbing Denver Center
08:39 37.5319 -107.4360 38° Northeast 279 321 22,900 1,260 Climbing Denver Center
08:40 37.5969 -107.3710 37° Northeast 285 328 24,000 1,020 Climbing Denver Center
08:41 37.6578 -107.3120 39° Northeast 293 337 25,000 540 Climbing Denver Center
08:42 37.7292 -107.2390 39° Northeast 311 358 25,100  Climbing Denver Center
08:43 37.8153 -107.1510 40° Northeast 348 400 25,100  Level Denver Center
08:44 37.8950 -107.0650 39° Northeast 364 419 25,100  Level Denver Center
08:45 37.9725 -106.9860 41° Northeast 385 443 25,100  Level Denver Center
08:46 38.0522 -106.8970 37° Northeast 385 443 25,100  Level Denver Center
08:47 38.1400 -106.8140 37° Northeast 385 443 25,100  Level Denver Center
08:48 38.2319 -106.7270 35° Northeast 373 429 25,100  Level Denver Center
08:49 38.3197 -106.6480 38° Northeast 372 428 25,100  Level Denver Center
08:50 38.3989 -106.5680 37° Northeast 367 422 25,100  Level Denver Center
08:51 38.4739 -106.4970 45° Northeast 367 422 25,100  Level Denver Center
08:52 38.5492 -106.4010 51° Northeast 367 422 25,100 -60 Level Denver Center
08:53 38.6219 -106.2840 49° Northeast 379 436 25,000  Descending Denver Center
08:54 38.6906 -106.1810 49° Northeast 386 444 25,100  Climbing Denver Center
08:55 38.7631 -106.0740 51° Northeast 386 444 25,100 -180 Level Denver Center
08:56 38.8294 -105.9690 53° Northeast 380 437 24,800 -960 Descending Denver Center
08:57 38.8914 -105.8650 48° Northeast 379 436 23,300 -1,440 Descending Denver Center
08:58 38.9578 -105.7710 50° Northeast 372 428 21,900 -1,440 Descending Denver Center
08:59 39.0217 -105.6740 51° Northeast 378 435 20,500 -1,620 Descending Denver Center
09:00 39.0939 -105.5610 52° Northeast 373 429 18,800 -1,500 Descending Denver Center
09:01 39.1494 -105.4690 50° Northeast 367 422 17,600 -1,380 Descending Denver Center
09:02 39.2131 -105.3720 51° Northeast 354 407 16,100 -1,320 Descending Denver Center
09:03 39.2747 -105.2740 50° Northeast 354 407 15,000 -1,020 Descending Denver Center
09:04 39.3361 -105.1790 53° Northeast 354 407 14,100 -540 Descending Denver Center
09:05 39.3872 -105.0900 86° East 325 374 14,000 -540 Descending Denver Center
09:06 39.3922 -104.9900 89° East 271 312 13,100 -540 Descending Denver Center
09:07 39.3931 -104.8850 80° East 266 306 13,000 -180 Descending Denver Center
09:08 39.4000 -104.8330 67° East 271 312 12,900 -720 Descending Denver TRACON
09:09 39.4333 -104.7330 27° Northeast 268 308 11,800 -960 Descending Denver TRACON
09:11 39.5333 -104.6670 360° North 204 235 10,100 -660 Descending Denver TRACON
09:12 39.5833 -104.6670 360° North 212 244 10,000 -480 Descending Denver TRACON
09:13 39.6333 -104.6670 360° North 201 231 9,200 -960 Descending Denver TRACON
09:14 39.7000 -104.6670 360° North 201 231 8,100 -1,140 Descending Denver TRACON
09:15 39.7500 -104.6670 360° North 203 234 7,000 -960 Descending Denver TRACON
09:16 39.8000 -104.6670 360° North 145 167 6,200 -1,260 Descending Denver TRACON
09:21 39.8500 -104.6670 360° North -1 -1,320 Descending FlightAware Approximate